CES7630 ZUXC-PHNL

Flight info

Callsign CES7630
Flight time N/A
Altitude 35100
Route BOPTU W162 KAKMI W144 IGNAK W179 WFX B213 ESPEG V154 SNF W269 OLPOV B213 WHA R343 PK A593 AKARA/K0911F351 A593 LAMEN/N0492F351 A593 SADLI Y590 BEDAR Y591 FUE Y23 KASTE Y81 TASOT Y57 LIGNI Y816 IPROS Y830 LAPIL OTR13 SEALS DCT 34N153E DCT 34N159E DCT 33N166E DCT 31N173E DCT 29N179E DCT 27N174W DCT 25N168W DCT CANON DCT CANON
Aircraft MD11/H-SDE1E2E3FGHIJ2J3J4J5M1RWXY/LB1D1

Departure

Time 2026-05-04 14:00
Airport Xichang Qingshan Airport (ZUXC)

Arrival

Time N/A
Airport Daniel K. Inouye International Airport (PHNL)
Time Latitude Longitude Altitude Speed Heading
2026-05-04 13:44 27.98292 102.18647 5089 ft 0 kts 88°
2026-05-04 13:52 27.98292 102.18616 5089 ft 4 kts 75°
2026-05-04 13:52 27.98283 102.18595 5095 ft 2 kts 27°
2026-05-04 13:52 27.98275 102.18590 5093 ft 2 kts 359°
2026-05-04 13:53 27.98277 102.18590 5094 ft 0 kts 359°
2026-05-04 13:54 27.98373 102.18587 5089 ft 14 kts 358°
2026-05-04 13:55 27.98490 102.18583 5089 ft 20 kts 358°
2026-05-04 13:55 27.98801 102.18572 5089 ft 24 kts 358°
2026-05-04 13:55 27.98981 102.18567 5090 ft 27 kts 359°
2026-05-04 13:56 27.99174 102.18559 5090 ft 25 kts 356°
2026-05-04 13:56 27.99328 102.18551 5090 ft 20 kts 358°
2026-05-04 13:56 27.99453 102.18547 5090 ft 21 kts 358°
2026-05-04 13:57 27.99599 102.18543 5090 ft 21 kts 359°
2026-05-04 13:57 27.99751 102.18536 5090 ft 22 kts 357°
2026-05-04 13:58 28.00241 102.18516 5089 ft 25 kts 358°
2026-05-04 13:58 28.00484 102.18499 5090 ft 6 kts 329°
2026-05-04 13:58 28.00496 102.18460 5091 ft 5 kts 278°
2026-05-04 13:59 28.00497 102.18416 5091 ft 6 kts 266°
2026-05-04 13:59 28.00481 102.18374 5092 ft 5 kts 217°
2026-05-04 13:59 28.00091 102.18385 5092 ft 88 kts 178°
2026-05-04 14:00 27.99584 102.18405 5091 ft 131 kts 179°
2026-05-04 14:00 27.97217 102.18500 5405 ft 185 kts 174°
2026-05-04 14:00 27.95910 102.18541 5932 ft 191 kts 172°
2026-05-04 14:01 27.94590 102.18626 6565 ft 188 kts 169°
2026-05-04 14:01 27.92854 102.18768 7338 ft 189 kts 169°
2026-05-04 14:01 27.90631 102.18888 8189 ft 196 kts 173°
2026-05-04 14:02 27.89199 102.18622 8371 ft 221 kts 190°
2026-05-04 14:02 27.87186 102.17857 8672 ft 237 kts 193°
2026-05-04 14:02 27.86119 102.17583 9023 ft 228 kts 175°
2026-05-04 14:02 27.84599 102.17844 9545 ft 220 kts 155°
2026-05-04 14:03 27.83166 102.18384 10037 ft 221 kts 153°
2026-05-04 14:03 27.81714 102.18964 10540 ft 222 kts 153°
2026-05-04 14:03 27.80256 102.19560 11023 ft 222 kts 149°
2026-05-04 14:03 27.78930 102.20434 11317 ft 223 kts 131°
2026-05-04 14:04 27.77764 102.23615 11612 ft 235 kts 83°
2026-05-04 14:04 27.78235 102.25422 11764 ft 247 kts 68°
2026-05-04 14:04 27.78989 102.27217 11883 ft 259 kts 66°
2026-05-04 14:05 27.80740 102.31135 12145 ft 304 kts 65°
2026-05-04 14:05 27.81730 102.33342 12419 ft 322 kts 65°
2026-05-04 14:05 27.82748 102.35608 13149 ft 324 kts 65°
2026-05-04 14:06 27.83770 102.37882 13920 ft 326 kts 65°
2026-05-04 14:06 27.84794 102.40165 14721 ft 326 kts 64°
2026-05-04 14:06 27.85819 102.42457 15446 ft 326 kts 64°
2026-05-04 14:06 27.86839 102.44739 16229 ft 325 kts 63°
2026-05-04 14:07 27.87854 102.47013 17044 ft 325 kts 62°
2026-05-04 14:07 27.88871 102.49289 17753 ft 324 kts 61°
2026-05-04 14:07 27.89895 102.51574 18393 ft 327 kts 60°
2026-05-04 14:07 27.90927 102.53867 19023 ft 329 kts 59°
2026-05-04 14:08 27.91968 102.56176 19696 ft 331 kts 58°
2026-05-04 14:08 27.93017 102.58502 20318 ft 333 kts 58°
2026-05-04 14:08 27.94075 102.60846 20910 ft 337 kts 57°
2026-05-04 14:08 27.95142 102.63214 21470 ft 340 kts 56°
2026-05-04 14:09 27.97309 102.68021 22533 ft 345 kts 56°
2026-05-04 14:09 27.98395 102.70435 22928 ft 352 kts 56°
2026-05-04 14:10 28.00611 102.75370 24151 ft 351 kts 56°
2026-05-04 14:10 28.01725 102.77859 24829 ft 350 kts 56°
2026-05-04 14:10 28.02808 102.80278 25498 ft 349 kts 56°
2026-05-04 14:10 28.03916 102.82751 26144 ft 347 kts 56°
2026-05-04 14:11 28.05007 102.85186 26793 ft 346 kts 56°
2026-05-04 14:11 28.07162 102.89998 28024 ft 344 kts 56°
2026-05-04 14:11 28.08241 102.92409 28576 ft 343 kts 56°
2026-05-04 14:12 28.09320 102.94822 29044 ft 342 kts 56°
2026-05-04 14:12 28.10392 102.97221 29555 ft 341 kts 56°
2026-05-04 14:12 28.12528 103.02005 30554 ft 339 kts 56°
2026-05-04 14:13 28.13590 103.04387 30965 ft 338 kts 56°
2026-05-04 14:13 28.14649 103.06761 31377 ft 338 kts 56°
2026-05-04 14:13 28.15708 103.09138 31735 ft 337 kts 56°
2026-05-04 14:13 28.16764 103.11509 32082 ft 337 kts 56°
2026-05-04 14:14 28.17816 103.13872 32459 ft 336 kts 56°
2026-05-04 14:14 28.19915 103.18593 33132 ft 335 kts 56°
2026-05-04 14:14 28.20964 103.20953 33430 ft 334 kts 56°
2026-05-04 14:15 28.23049 103.25652 34014 ft 333 kts 56°
2026-05-04 14:15 28.25124 103.30331 34634 ft 332 kts 56°
2026-05-04 14:16 28.27193 103.35010 35013 ft 335 kts 56°
2026-05-04 14:16 28.28236 103.37384 35028 ft 337 kts 56°
2026-05-04 14:17 28.31336 103.44452 35030 ft 330 kts 56°
2026-05-04 14:18 28.34427 103.51462 35026 ft 332 kts 56°
2026-05-04 14:19 28.38541 103.60809 35034 ft 330 kts 56°
2026-05-04 14:19 28.40595 103.65482 35025 ft 330 kts 56°
2026-05-04 14:20 28.42648 103.70159 35027 ft 331 kts 56°
2026-05-04 14:20 28.44699 103.74838 35026 ft 331 kts 56°
2026-05-04 14:21 28.47770 103.81853 35039 ft 331 kts 56°
2026-05-04 14:21 28.49813 103.86522 35025 ft 331 kts 56°
2026-05-04 14:22 28.51857 103.91206 35031 ft 331 kts 56°
2026-05-04 14:22 28.53899 103.95889 35032 ft 331 kts 56°
2026-05-04 14:23 28.56961 104.02918 35029 ft 332 kts 56°
2026-05-04 14:24 28.58992 104.07626 35028 ft 331 kts 57°
2026-05-04 14:24 28.61020 104.12334 35030 ft 331 kts 57°
2026-05-04 14:25 28.63054 104.17036 35029 ft 330 kts 56°
2026-05-04 14:25 28.66912 104.23329 35033 ft 320 kts 40°
2026-05-04 14:26 28.70454 104.26334 35028 ft 317 kts 28°
2026-05-04 14:26 28.74527 104.28217 35032 ft 318 kts 17°
2026-05-04 14:27 28.78927 104.28904 35022 ft 322 kts
2026-05-04 14:27 28.81832 104.28806 35030 ft 325 kts
2026-05-04 14:28 28.86354 104.28499 35026 ft 325 kts
2026-05-04 14:28 28.88967 104.28328 35027 ft 325 kts
2026-05-04 14:29 28.92333 104.28123 35029 ft 325 kts
2026-05-04 14:30 28.96852 104.27863 35031 ft 325 kts
2026-05-04 14:31 29.03627 104.27483 35029 ft 325 kts
2026-05-04 14:32 29.05221 104.27395 35030 ft 325 kts
2026-05-04 14:32 29.08465 104.27214 35030 ft 325 kts
2026-05-04 14:33 29.10433 104.27105 35030 ft 325 kts
2026-05-04 14:33 29.14951 104.26854 35029 ft 325 kts
2026-05-04 14:34 29.19467 104.26603 35030 ft 325 kts
2026-05-04 14:34 29.23659 104.26369 35029 ft 325 kts
2026-05-04 14:35 29.27217 104.26242 35026 ft 322 kts
2026-05-04 14:35 29.31611 104.26817 35027 ft 320 kts 12°
2026-05-04 14:36 29.36011 104.27587 35027 ft 320 kts 12°
2026-05-04 14:36 29.40409 104.28353 35029 ft 320 kts 12°
2026-05-04 14:37 29.44805 104.29110 35030 ft 320 kts 12°
2026-05-04 14:37 29.49207 104.29863 35027 ft 320 kts 12°
2026-05-04 14:38 29.53608 104.30615 35029 ft 320 kts 12°
2026-05-04 14:38 29.58004 104.31367 35029 ft 320 kts 12°
2026-05-04 14:39 29.62406 104.32120 35030 ft 320 kts 12°
2026-05-04 14:39 29.66809 104.32874 35029 ft 320 kts 12°
2026-05-04 14:40 29.73412 104.34006 35027 ft 320 kts 12°
2026-05-04 14:40 29.77813 104.34761 35028 ft 320 kts 12°
2026-05-04 14:41 29.82213 104.35517 35029 ft 320 kts 12°
2026-05-04 14:42 29.90913 104.37013 35029 ft 320 kts 12°
2026-05-04 14:42 29.95316 104.37771 35030 ft 320 kts 12°
2026-05-04 14:43 29.99715 104.38529 35029 ft 320 kts 12°
2026-05-04 14:43 30.04117 104.39289 35030 ft 320 kts 12°
2026-05-04 14:44 30.08518 104.40049 35029 ft 320 kts 12°
2026-05-04 14:44 30.12888 104.40806 35027 ft 320 kts 12°
2026-05-04 14:45 30.17289 104.41576 35029 ft 320 kts 12°
2026-05-04 14:45 30.21688 104.42347 35029 ft 320 kts 12°
2026-05-04 14:46 30.26086 104.43117 35029 ft 320 kts 12°
2026-05-04 14:46 30.30486 104.43888 35029 ft 320 kts 12°
2026-05-04 14:47 30.34885 104.44660 35029 ft 320 kts 12°
2026-05-04 14:47 30.39285 104.45433 35029 ft 320 kts 12°
2026-05-04 14:48 30.43682 104.46205 35030 ft 320 kts 12°
2026-05-04 14:48 30.47339 104.46848 35028 ft 320 kts 12°
2026-05-04 14:49 30.51702 104.47782 35028 ft 318 kts 17°
2026-05-04 14:49 30.55786 104.49671 35030 ft 316 kts 29°
2026-05-04 14:50 30.59332 104.52708 35031 ft 320 kts 40°
2026-05-04 14:50 30.62154 104.56744 35026 ft 327 kts 52°
2026-05-04 14:51 30.64069 104.61604 35031 ft 337 kts 63°
2026-05-04 14:51 30.65411 104.66844 35028 ft 339 kts 65°
2026-05-04 14:52 30.66710 104.72108 35031 ft 339 kts 65°
2026-05-04 14:52 30.68031 104.77360 35030 ft 339 kts 65°
2026-05-04 14:53 30.69364 104.82607 35030 ft 339 kts 65°
2026-05-04 14:53 30.70699 104.87853 35025 ft 339 kts 65°
2026-05-04 14:54 30.72034 104.93103 35030 ft 339 kts 65°
2026-05-04 14:54 30.73367 104.98356 35031 ft 339 kts 65°
2026-05-04 14:55 30.74699 105.03611 35028 ft 339 kts 65°
2026-05-04 14:55 30.76027 105.08862 35031 ft 339 kts 65°
2026-05-04 14:56 30.77345 105.14085 35027 ft 339 kts 65°
2026-05-04 14:56 30.78670 105.19340 35029 ft 339 kts 65°
2026-05-04 14:57 30.79993 105.24599 35031 ft 339 kts 65°
2026-05-04 14:57 30.81314 105.29862 35030 ft 339 kts 65°
2026-05-04 14:58 30.82633 105.35125 35029 ft 339 kts 65°
2026-05-04 14:58 30.83949 105.40391 35029 ft 339 kts 65°
2026-05-04 14:59 30.85140 105.45720 35027 ft 341 kts 67°
2026-05-04 15:00 30.86833 105.53768 35027 ft 341 kts 67°
2026-05-04 15:00 30.87966 105.59131 35030 ft 341 kts 67°
2026-05-04 15:01 30.89668 105.67176 35031 ft 341 kts 67°
2026-05-04 15:01 30.90801 105.72541 35031 ft 341 kts 67°
2026-05-04 15:02 30.91932 105.77907 35027 ft 341 kts 67°
2026-05-04 15:02 30.93061 105.83277 35030 ft 341 kts 67°
2026-05-04 15:03 30.94188 105.88646 35029 ft 341 kts 67°
2026-05-04 15:03 30.95312 105.94014 35031 ft 341 kts 67°
2026-05-04 15:04 30.96435 105.99390 35028 ft 341 kts 67°
2026-05-04 15:04 30.97127 106.04940 35031 ft 351 kts 75°
2026-05-04 15:05 30.97451 106.10624 35033 ft 352 kts 76°
2026-05-04 15:05 30.97758 106.16314 35028 ft 352 kts 76°
2026-05-04 15:06 30.98077 106.21959 35032 ft 351 kts 76°
2026-05-04 15:07 30.98571 106.30525 35030 ft 352 kts 76°
2026-05-04 15:07 30.98895 106.36168 35031 ft 352 kts 76°
2026-05-04 15:08 30.99219 106.41853 35030 ft 352 kts 76°
2026-05-04 15:08 30.99541 106.47532 35025 ft 352 kts 76°
2026-05-04 15:09 30.99861 106.53222 35026 ft 352 kts 76°
2026-05-04 15:09 31.00178 106.58910 35029 ft 352 kts 76°
2026-05-04 15:10 31.00649 106.67442 35023 ft 352 kts 76°
2026-05-04 15:11 31.01115 106.75980 35029 ft 352 kts 76°
2026-05-04 15:11 31.01422 106.81671 35030 ft 352 kts 76°
2026-05-04 15:12 31.01727 106.87361 35027 ft 352 kts 76°
2026-05-04 15:12 31.02029 106.93054 35032 ft 352 kts 76°
2026-05-04 15:13 31.02325 106.98749 35026 ft 352 kts 76°
2026-05-04 15:13 31.02601 107.04450 35026 ft 352 kts 76°
2026-05-04 15:14 31.02885 107.10149 35030 ft 352 kts 76°
2026-05-04 15:14 31.03173 107.15847 35030 ft 352 kts 76°
2026-05-04 15:15 31.03462 107.21543 35026 ft 352 kts 76°
2026-05-04 15:15 31.03749 107.27239 35031 ft 352 kts 76°
2026-05-04 15:16 31.04175 107.35790 35032 ft 352 kts 76°
2026-05-04 15:17 31.04572 107.44346 35028 ft 353 kts 77°
2026-05-04 15:17 31.04829 107.52899 35025 ft 354 kts 78°
2026-05-04 15:18 31.04949 107.58641 35029 ft 354 kts 78°
2026-05-04 15:19 31.05122 107.67254 35030 ft 354 kts 78°
2026-05-04 15:19 31.05287 107.75869 35027 ft 354 kts 78°
2026-05-04 15:20 31.05395 107.81612 35022 ft 355 kts 78°
2026-05-04 15:20 31.05503 107.87369 35026 ft 355 kts 78°
2026-05-04 15:21 31.05607 107.93116 35028 ft 354 kts 78°
2026-05-04 15:22 31.05760 108.01733 35029 ft 354 kts 78°
2026-05-04 15:22 31.05907 108.10358 35032 ft 355 kts 78°
2026-05-04 15:23 31.06002 108.16099 35032 ft 355 kts 78°
2026-05-04 15:23 31.06094 108.21847 35033 ft 355 kts 78°
2026-05-04 15:24 31.06270 108.33346 35033 ft 354 kts 78°
2026-05-04 15:25 31.06356 108.39095 35030 ft 355 kts 78°
2026-05-04 15:26 31.06477 108.47725 35027 ft 354 kts 78°
2026-05-04 15:26 31.06594 108.56356 35030 ft 355 kts 78°
2026-05-04 15:27 31.06701 108.64986 35031 ft 355 kts 79°
2026-05-04 15:28 31.06777 108.73629 35031 ft 356 kts 79°
2026-05-04 15:29 31.06868 108.82265 35024 ft 354 kts 78°
2026-05-04 15:30 31.07075 109.02388 35033 ft 355 kts 79°
2026-05-04 15:31 31.07155 109.11029 35026 ft 355 kts 79°
2026-05-04 15:32 31.07274 109.25432 35032 ft 355 kts 79°
2026-05-04 15:34 31.07379 109.39840 35030 ft 356 kts 79°
2026-05-04 15:34 31.07434 109.48496 35033 ft 355 kts 79°
2026-05-04 15:35 31.07484 109.57157 35026 ft 357 kts 79°
2026-05-04 15:36 31.07507 109.65775 35027 ft 355 kts 79°
2026-05-04 15:36 31.07181 109.71591 35028 ft 370 kts 91°
2026-05-04 15:37 31.05692 109.77434 35029 ft 380 kts 97°
2026-05-04 15:37 31.03978 109.83273 35029 ft 381 kts 97°
2026-05-04 15:38 31.02567 109.88156 35027 ft 379 kts 97°
2026-05-04 15:38 31.00912 109.93988 35030 ft 379 kts 96°
2026-05-04 15:39 30.99001 110.00769 35029 ft 378 kts 96°
2026-05-04 15:40 30.96808 110.08542 35022 ft 379 kts 96°
2026-05-04 15:40 30.95160 110.14369 35030 ft 379 kts 96°
2026-05-04 15:41 30.93507 110.20205 35034 ft 380 kts 96°
2026-05-04 15:41 30.91851 110.26035 35030 ft 380 kts 96°
2026-05-04 15:42 30.90192 110.31869 35030 ft 379 kts 96°
2026-05-04 15:42 30.88531 110.37699 35030 ft 379 kts 96°
2026-05-04 15:43 30.86868 110.43518 35039 ft 378 kts 96°
2026-05-04 15:43 30.85204 110.49338 35027 ft 380 kts 96°
2026-05-04 15:44 30.83535 110.55161 35026 ft 380 kts 96°
2026-05-04 15:44 30.81862 110.60987 35028 ft 379 kts 97°
2026-05-04 15:45 30.80172 110.66802 35025 ft 379 kts 97°
2026-05-04 15:45 30.78478 110.72616 35032 ft 380 kts 97°
2026-05-04 15:46 30.76791 110.78433 35031 ft 380 kts 97°
2026-05-04 15:46 30.75107 110.84250 35029 ft 379 kts 97°
2026-05-04 15:47 30.73419 110.90069 35032 ft 380 kts 97°
2026-05-04 15:47 30.71730 110.95887 35027 ft 380 kts 97°
2026-05-04 15:48 30.70038 111.01700 35029 ft 380 kts 97°
2026-05-04 15:48 30.67506 111.10376 35025 ft 380 kts 97°
2026-05-04 15:49 30.65797 111.16224 35029 ft 380 kts 97°
2026-05-04 15:49 30.64094 111.22034 35030 ft 380 kts 97°
2026-05-04 15:50 30.62776 111.27817 35026 ft 361 kts 83°
2026-05-04 15:50 30.62821 111.30668 35023 ft 348 kts 73°
2026-05-04 15:50 30.63150 111.33435 35033 ft 345 kts 71°
2026-05-04 15:51 30.63978 111.38961 35029 ft 345 kts 70°
2026-05-04 15:51 30.64769 111.44462 35027 ft 346 kts 71°
2026-05-04 15:52 30.65375 111.50033 35030 ft 351 kts 75°
2026-05-04 15:52 30.65688 111.55700 35030 ft 352 kts 76°
2026-05-04 15:53 30.65964 111.61334 35027 ft 352 kts 76°
2026-05-04 15:53 30.66248 111.67009 35030 ft 352 kts 76°
2026-05-04 15:54 30.66535 111.72686 35030 ft 352 kts 76°
2026-05-04 15:54 30.66823 111.78361 35031 ft 352 kts 76°
2026-05-04 15:55 30.67111 111.84034 35028 ft 352 kts 76°
2026-05-04 15:55 30.67398 111.89713 35027 ft 352 kts 76°
2026-05-04 15:56 30.67685 111.95387 35029 ft 352 kts 76°
2026-05-04 15:56 30.68044 112.01045 35028 ft 351 kts 75°
2026-05-04 15:57 30.68434 112.06689 35030 ft 351 kts 75°
2026-05-04 15:57 30.68824 112.12335 35028 ft 351 kts 75°
2026-05-04 15:58 30.69211 112.17986 35028 ft 351 kts 75°
2026-05-04 15:58 30.69595 112.23634 35030 ft 351 kts 75°
2026-05-04 15:59 30.69976 112.29283 35028 ft 351 kts 75°
2026-05-04 15:59 30.70355 112.34937 35030 ft 351 kts 75°
2026-05-04 16:00 30.70731 112.40589 35030 ft 351 kts 75°
2026-05-04 16:00 30.71105 112.46240 35030 ft 351 kts 75°
2026-05-04 16:01 30.71476 112.51895 35029 ft 351 kts 75°
2026-05-04 16:01 30.71846 112.57551 35029 ft 351 kts 75°
2026-05-04 16:02 30.72212 112.63207 35030 ft 351 kts 75°
2026-05-04 16:03 30.72755 112.71655 35029 ft 351 kts 75°
2026-05-04 16:03 30.73116 112.77311 35029 ft 351 kts 75°
2026-05-04 16:04 30.73474 112.82970 35027 ft 351 kts 76°
2026-05-04 16:04 30.74006 112.91458 35027 ft 351 kts 76°
2026-05-04 16:05 30.74338 112.97126 35030 ft 351 kts 76°
2026-05-04 16:06 30.74845 113.05624 35029 ft 351 kts 76°
2026-05-04 16:07 30.75446 113.16978 35028 ft 354 kts 77°
2026-05-04 16:08 30.75741 113.28417 35028 ft 354 kts 78°
2026-05-04 16:09 30.76102 113.42667 35030 ft 354 kts 78°
2026-05-04 16:10 30.76385 113.54109 35028 ft 354 kts 78°
2026-05-04 16:11 30.76658 113.65553 35029 ft 354 kts 78°
2026-05-04 16:12 30.77049 113.82720 35028 ft 354 kts 78°
2026-05-04 16:13 30.77296 113.94172 35030 ft 354 kts 78°
2026-05-04 16:14 30.77597 114.05607 35030 ft 353 kts 77°
2026-05-04 16:16 30.78262 114.19819 35031 ft 345 kts 70°
2026-05-04 16:16 30.80505 114.27545 35029 ft 334 kts 60°
2026-05-04 16:17 30.82188 114.32550 35027 ft 335 kts 61°
2026-05-04 16:18 30.85492 114.42688 35028 ft 335 kts 61°
2026-05-04 16:19 30.89607 114.55374 35030 ft 335 kts 61°
2026-05-04 16:20 30.93724 114.68063 35028 ft 335 kts 61°
2026-05-04 16:22 30.97829 114.80765 35030 ft 335 kts 61°
2026-05-04 16:23 31.02733 114.96025 35028 ft 335 kts 61°
2026-05-04 16:25 31.07337 115.10448 35027 ft 335 kts 61°
2026-05-04 16:26 31.13007 115.28303 35024 ft 335 kts 62°
2026-05-04 16:28 31.17125 115.41022 35027 ft 335 kts 61°
2026-05-04 16:29 31.22885 115.58845 35024 ft 335 kts 61°
2026-05-04 16:31 31.26979 115.71575 35034 ft 335 kts 61°
2026-05-04 16:32 31.31865 115.86903 35027 ft 335 kts 61°
2026-05-04 16:33 31.35177 115.97089 35030 ft 335 kts 61°
2026-05-04 16:34 31.37669 116.04729 35030 ft 335 kts 61°
2026-05-04 16:35 31.42642 116.20028 35033 ft 335 kts 61°
2026-05-04 16:36 31.45121 116.27682 35030 ft 335 kts 61°
2026-05-04 16:37 31.47596 116.35339 35031 ft 335 kts 61°
2026-05-04 16:38 31.50875 116.45517 35026 ft 335 kts 61°
2026-05-04 16:39 31.54978 116.58295 35031 ft 335 kts 61°
2026-05-04 16:40 31.58253 116.68533 35027 ft 335 kts 61°
2026-05-04 16:41 31.62326 116.81347 35030 ft 336 kts 62°
2026-05-04 16:43 31.66371 116.94178 35028 ft 335 kts 61°
2026-05-04 16:43 31.68798 117.01882 35028 ft 336 kts 62°
2026-05-04 16:45 31.73560 117.17355 35028 ft 336 kts 62°
2026-05-04 16:46 31.77288 117.30384 35030 ft 346 kts 73°
2026-05-04 16:47 31.77250 117.36180 35031 ft 361 kts 84°
2026-05-04 16:47 31.76778 117.42076 35030 ft 362 kts 84°
2026-05-04 16:48 31.75898 117.53858 35028 ft 361 kts 84°
2026-05-04 16:49 31.75080 117.65582 35030 ft 361 kts 84°
2026-05-04 16:50 31.74254 117.77354 35031 ft 362 kts 84°
2026-05-04 16:51 31.73626 117.86182 35030 ft 362 kts 84°
2026-05-04 16:52 31.72780 117.97955 35028 ft 362 kts 84°
2026-05-04 16:53 31.72139 118.06781 35029 ft 362 kts 84°
2026-05-04 16:54 31.71288 118.18545 35029 ft 361 kts 84°
2026-05-04 16:55 31.70052 118.36192 35029 ft 361 kts 84°
2026-05-04 16:56 31.69017 118.50780 35028 ft 362 kts 84°
2026-05-04 16:57 31.68383 118.59604 35030 ft 362 kts 84°
2026-05-04 16:58 31.67528 118.71370 35028 ft 362 kts 84°
2026-05-04 17:00 31.66225 118.89017 35027 ft 362 kts 84°
2026-05-04 17:01 31.65113 119.03724 35027 ft 361 kts 83°
2026-05-04 17:02 31.64484 119.15462 35031 ft 360 kts 82°
2026-05-04 17:03 31.64095 119.24207 35030 ft 359 kts 82°
2026-05-04 17:03 31.63702 119.32990 35028 ft 360 kts 82°
2026-05-04 17:04 31.63156 119.44707 35030 ft 360 kts 82°
2026-05-04 17:05 31.62598 119.56424 35030 ft 360 kts 82°
2026-05-04 17:06 31.62174 119.65214 35029 ft 360 kts 82°
2026-05-04 17:07 31.61808 119.73011 35030 ft 359 kts 82°
2026-05-04 17:07 31.61496 119.79855 35029 ft 359 kts 82°
2026-05-04 17:08 31.61094 119.88634 35028 ft 360 kts 82°
2026-05-04 17:09 31.60822 119.94487 35028 ft 360 kts 82°
2026-05-04 17:09 31.60548 120.00347 35029 ft 360 kts 82°
2026-05-04 17:10 31.59852 120.14945 35028 ft 360 kts 82°
2026-05-04 17:11 31.59568 120.20804 35029 ft 360 kts 82°
2026-05-04 17:12 31.59129 120.29590 35029 ft 361 kts 84°
2026-05-04 17:12 31.57956 120.35484 35030 ft 379 kts 97°
2026-05-04 17:13 31.55284 120.44259 35030 ft 381 kts 98°
2026-05-04 17:14 31.52053 120.54976 35029 ft 380 kts 97°
2026-05-04 17:15 31.49142 120.64745 35028 ft 380 kts 97°
2026-05-04 17:16 31.45659 120.76406 35030 ft 381 kts 97°
2026-05-04 17:17 31.42151 120.88104 35030 ft 381 kts 97°
2026-05-04 17:18 31.38917 120.98849 35029 ft 381 kts 97°
2026-05-04 17:19 31.35397 121.10493 35028 ft 381 kts 98°
2026-05-04 17:20 31.31778 121.22158 35030 ft 381 kts 98°
2026-05-04 17:20 31.29098 121.30812 35030 ft 381 kts 98°
2026-05-04 17:21 31.25985 121.42535 35029 ft 376 kts 94°
2026-05-04 17:22 31.24576 121.48413 35030 ft 376 kts 94°
2026-05-04 17:23 31.21728 121.60158 35029 ft 376 kts 94°
2026-05-04 17:24 31.19576 121.68970 35028 ft 376 kts 94°
2026-05-04 17:24 31.17627 121.77781 35025 ft 363 kts 84°
2026-05-04 17:25 31.17633 121.80653 35028 ft 347 kts 73°
2026-05-04 17:26 31.19718 121.91488 35029 ft 342 kts 67°
2026-05-04 17:27 31.22364 122.04996 35030 ft 342 kts 68°
2026-05-04 17:28 31.24431 122.15857 35029 ft 342 kts 68°
2026-05-04 17:29 31.27511 122.32166 35028 ft 343 kts 68°
2026-05-04 17:31 31.30066 122.45765 35028 ft 343 kts 68°
2026-05-04 17:32 31.32661 122.59351 35029 ft 342 kts 68°
2026-05-04 17:33 31.34740 122.70215 35028 ft 342 kts 68°
2026-05-04 17:34 31.36823 122.81089 35028 ft 342 kts 68°
2026-05-04 17:35 31.39458 122.94663 35029 ft 342 kts 68°
2026-05-04 17:36 31.40510 123.00093 35028 ft 342 kts 68°
2026-05-04 17:36 31.41561 123.05528 35029 ft 342 kts 68°
2026-05-04 17:37 31.42609 123.10962 35028 ft 342 kts 68°
2026-05-04 17:37 31.43656 123.16402 35029 ft 342 kts 68°
2026-05-04 17:38 31.44700 123.21837 35029 ft 342 kts 68°
2026-05-04 17:38 31.45740 123.27271 35029 ft 342 kts 68°
2026-05-04 17:39 31.47299 123.35438 35029 ft 342 kts 68°
2026-05-04 17:39 31.48328 123.40844 35029 ft 342 kts 68°
2026-05-04 17:40 31.49362 123.46290 35030 ft 342 kts 68°
2026-05-04 17:40 31.50443 123.51749 35028 ft 341 kts 67°
2026-05-04 17:41 31.51618 123.57133 35030 ft 341 kts 66°
2026-05-04 17:41 31.52800 123.62466 35029 ft 340 kts 66°
2026-05-04 17:42 31.53989 123.67836 35029 ft 341 kts 66°
2026-05-04 17:42 31.55177 123.73213 35030 ft 341 kts 66°
2026-05-04 17:43 31.56361 123.78586 35028 ft 341 kts 66°
2026-05-04 17:43 31.57545 123.83967 35029 ft 341 kts 66°
2026-05-04 17:44 31.58725 123.89345 35029 ft 341 kts 66°
2026-05-04 17:44 31.59903 123.94724 35028 ft 341 kts 66°
2026-05-04 17:45 31.61080 124.00109 35029 ft 341 kts 66°
2026-05-04 17:45 31.62267 124.05487 35028 ft 340 kts 66°
2026-05-04 17:46 31.63462 124.10864 35028 ft 340 kts 66°
2026-05-04 17:46 31.64656 124.16238 35028 ft 340 kts 66°
2026-05-04 17:47 31.65851 124.21615 35028 ft 340 kts 66°
2026-05-04 17:47 31.67043 124.26993 35028 ft 340 kts 66°
2026-05-04 17:48 31.68233 124.32374 35029 ft 341 kts 66°
2026-05-04 17:48 31.69421 124.37755 35028 ft 341 kts 66°
2026-05-04 17:49 31.70606 124.43138 35029 ft 341 kts 66°
2026-05-04 17:49 31.71790 124.48524 35029 ft 341 kts 66°
2026-05-04 17:50 31.72971 124.53911 35028 ft 341 kts 66°
2026-05-04 17:50 31.74151 124.59301 35029 ft 341 kts 66°
2026-05-04 17:51 31.75328 124.64693 35028 ft 341 kts 66°
2026-05-04 17:51 31.76503 124.70085 35028 ft 341 kts 66°
2026-05-04 17:52 31.77667 124.75443 35028 ft 341 kts 66°
2026-05-04 17:52 31.78838 124.80841 35028 ft 341 kts 66°
2026-05-04 17:53 31.80005 124.86232 35028 ft 341 kts 66°
2026-05-04 17:53 31.81171 124.91632 35028 ft 341 kts 66°
2026-05-04 17:54 31.82319 124.97042 35028 ft 342 kts 68°
2026-05-04 17:54 31.82637 125.02737 35031 ft 363 kts 86°
2026-05-04 17:55 31.81740 125.08657 35029 ft 370 kts 90°
2026-05-04 17:55 31.80698 125.14590 35029 ft 370 kts 90°
2026-05-04 17:56 31.79699 125.20515 35029 ft 369 kts 89°
2026-05-04 17:56 31.78726 125.26444 35029 ft 369 kts 89°
2026-05-04 17:57 31.77761 125.32369 35030 ft 369 kts 89°
2026-05-04 17:57 31.76794 125.38297 35030 ft 369 kts 89°
2026-05-04 17:58 31.75824 125.44222 35029 ft 369 kts 89°
2026-05-04 17:58 31.74852 125.50149 35030 ft 369 kts 89°
2026-05-04 17:59 31.73877 125.56070 35029 ft 369 kts 89°
2026-05-04 18:00 31.72470 125.64951 35026 ft 363 kts 84°
2026-05-04 18:00 31.72466 125.67851 35028 ft 347 kts 72°
2026-05-04 18:00 31.72908 125.70602 35030 ft 341 kts 67°
2026-05-04 18:01 31.74145 125.75959 35029 ft 340 kts 65°
2026-05-04 18:01 31.75396 125.81313 35030 ft 340 kts 66°
2026-05-04 18:02 31.77005 125.88467 35029 ft 340 kts 66°
2026-05-04 18:02 31.78194 125.93854 35028 ft 341 kts 66°
2026-05-04 18:03 31.79373 125.99245 35028 ft 341 kts 66°
2026-05-04 18:03 31.80553 126.04641 35028 ft 341 kts 66°
2026-05-04 18:04 31.81732 126.10036 35028 ft 341 kts 66°
2026-05-04 18:05 31.83496 126.18128 35029 ft 341 kts 66°
2026-05-04 18:05 31.84669 126.23524 35028 ft 341 kts 66°
2026-05-04 18:06 31.86426 126.31628 35028 ft 341 kts 66°
2026-05-04 18:06 31.87586 126.36993 35029 ft 341 kts 66°
2026-05-04 18:07 31.88753 126.42400 35028 ft 341 kts 66°
2026-05-04 18:07 31.89917 126.47807 35029 ft 341 kts 66°
2026-05-04 18:08 31.91089 126.53203 35028 ft 341 kts 66°
2026-05-04 18:08 31.92272 126.58600 35028 ft 341 kts 66°
2026-05-04 18:09 31.94641 126.69396 35028 ft 341 kts 66°
2026-05-04 18:10 31.95824 126.74796 35029 ft 341 kts 66°
2026-05-04 18:10 31.97005 126.80200 35028 ft 341 kts 66°
2026-05-04 18:11 31.98175 126.85566 35028 ft 341 kts 66°
2026-05-04 18:11 31.99351 126.90970 35028 ft 341 kts 66°
2026-05-04 18:12 32.00525 126.96379 35029 ft 341 kts 66°
2026-05-04 18:12 32.01697 127.01789 35028 ft 341 kts 66°
2026-05-04 18:13 32.02866 127.07199 35028 ft 341 kts 66°
2026-05-04 18:14 32.05085 127.15044 35029 ft 333 kts 59°
2026-05-04 18:14 32.06963 127.20023 35030 ft 332 kts 58°
2026-05-04 18:15 32.10728 127.29984 35029 ft 332 kts 58°
2026-05-04 18:16 32.12598 127.34970 35029 ft 333 kts 58°
2026-05-04 18:16 32.14462 127.39964 35028 ft 333 kts 58°
2026-05-04 18:17 32.17258 127.47459 35028 ft 333 kts 58°
2026-05-04 18:18 32.20052 127.54956 35028 ft 333 kts 58°
2026-05-04 18:18 32.21901 127.59926 35028 ft 333 kts 58°
2026-05-04 18:19 32.24688 127.67431 35028 ft 333 kts 59°
2026-05-04 18:19 32.26544 127.72439 35028 ft 333 kts 59°
2026-05-04 18:20 32.28398 127.77447 35028 ft 333 kts 59°
2026-05-04 18:20 32.30250 127.82458 35028 ft 333 kts 59°
2026-05-04 18:21 32.32101 127.87474 35030 ft 333 kts 59°
2026-05-04 18:21 32.33950 127.92492 35028 ft 333 kts 59°
2026-05-04 18:22 32.35797 127.97511 35028 ft 333 kts 59°
2026-05-04 18:22 32.37641 128.02531 35030 ft 333 kts 59°
2026-05-04 18:23 32.39483 128.07552 35031 ft 333 kts 59°
2026-05-04 18:23 32.41324 128.12576 35030 ft 333 kts 59°
2026-05-04 18:24 32.43163 128.17606 35029 ft 333 kts 59°
2026-05-04 18:24 32.45000 128.22635 35029 ft 333 kts 59°
2026-05-04 18:25 32.46825 128.27677 35031 ft 333 kts 59°
2026-05-04 18:25 32.48644 128.32725 35029 ft 333 kts 59°
2026-05-04 18:26 32.50469 128.37765 35031 ft 333 kts 59°
2026-05-04 18:26 32.52296 128.42806 35030 ft 333 kts 59°
2026-05-04 18:27 32.54124 128.47849 35030 ft 333 kts 59°
2026-05-04 18:27 32.55949 128.52894 35029 ft 333 kts 59°
2026-05-04 18:28 32.57773 128.57942 35030 ft 333 kts 59°
2026-05-04 18:28 32.59596 128.62993 35030 ft 333 kts 59°
2026-05-04 18:29 32.61416 128.68045 35029 ft 333 kts 59°
2026-05-04 18:29 32.63234 128.73100 35032 ft 333 kts 59°
2026-05-04 18:30 32.65959 128.80689 35030 ft 333 kts 59°
2026-05-04 18:31 32.67633 128.85841 35032 ft 339 kts 65°
2026-05-04 18:31 32.68793 128.91250 35028 ft 342 kts 68°
2026-05-04 18:32 32.69884 128.96741 35028 ft 342 kts 68°
2026-05-04 18:32 32.70985 129.02228 35028 ft 342 kts 67°
2026-05-04 18:33 32.72093 129.07714 35028 ft 342 kts 67°
2026-05-04 18:33 32.73202 129.13197 35028 ft 342 kts 67°
2026-05-04 18:34 32.74310 129.18681 35028 ft 342 kts 67°
2026-05-04 18:34 32.75415 129.24168 35028 ft 342 kts 67°
2026-05-04 18:35 32.76520 129.29660 35030 ft 342 kts 67°
2026-05-04 18:35 32.77620 129.35147 35030 ft 342 kts 68°
2026-05-04 18:36 32.78719 129.40640 35029 ft 342 kts 68°
2026-05-04 18:36 32.79816 129.46134 35029 ft 342 kts 68°
2026-05-04 18:37 32.80903 129.51592 35029 ft 342 kts 68°
2026-05-04 18:37 32.81995 129.57092 35029 ft 342 kts 68°
2026-05-04 18:38 32.83085 129.62592 35029 ft 342 kts 68°
2026-05-04 18:38 32.84171 129.68084 35030 ft 342 kts 68°
2026-05-04 18:39 32.85200 129.73614 35029 ft 344 kts 70°
2026-05-04 18:39 32.86025 129.79237 35029 ft 345 kts 71°
2026-05-04 18:40 32.86824 129.84865 35029 ft 345 kts 71°
2026-05-04 18:40 32.87631 129.90496 35030 ft 345 kts 71°
2026-05-04 18:41 32.88440 129.96120 35030 ft 345 kts 71°
2026-05-04 18:41 32.89249 130.01755 35027 ft 345 kts 71°
2026-05-04 18:42 32.90056 130.07382 35027 ft 345 kts 71°
2026-05-04 18:42 32.90861 130.13014 35027 ft 345 kts 71°
2026-05-04 18:43 32.91663 130.18648 35030 ft 345 kts 71°
2026-05-04 18:43 32.92458 130.24250 35028 ft 345 kts 71°
2026-05-04 18:44 32.93256 130.29886 35028 ft 345 kts 71°
2026-05-04 18:44 32.94050 130.35522 35029 ft 345 kts 71°
2026-05-04 18:45 32.94843 130.41164 35029 ft 345 kts 71°
2026-05-04 18:45 32.95633 130.46804 35030 ft 346 kts 71°
2026-05-04 18:46 32.96421 130.52450 35028 ft 346 kts 71°
2026-05-04 18:46 32.97206 130.58094 35028 ft 345 kts 71°
2026-05-04 18:47 32.97989 130.63740 35027 ft 345 kts 71°
2026-05-04 18:47 32.98768 130.69390 35028 ft 346 kts 71°
2026-05-04 18:48 32.99525 130.75046 35029 ft 346 kts 71°
2026-05-04 18:48 33.00286 130.80701 35032 ft 346 kts 71°
2026-05-04 18:49 33.01053 130.86356 35028 ft 346 kts 71°
2026-05-04 18:49 33.01822 130.92007 35030 ft 345 kts 71°
2026-05-04 18:50 33.02590 130.97664 35033 ft 346 kts 71°
2026-05-04 18:50 33.03355 131.03322 35029 ft 346 kts 71°
2026-05-04 18:51 33.04118 131.08980 35030 ft 346 kts 71°
2026-05-04 18:51 33.04877 131.14638 35028 ft 346 kts 71°
2026-05-04 18:52 33.05630 131.20260 35029 ft 346 kts 71°
2026-05-04 18:52 33.06386 131.25925 35027 ft 346 kts 71°
2026-05-04 18:53 33.07139 131.31591 35031 ft 346 kts 71°
2026-05-04 18:53 33.07888 131.37252 35029 ft 346 kts 71°
2026-05-04 18:54 33.08624 131.42923 35030 ft 346 kts 71°
2026-05-04 18:54 33.09362 131.48598 35027 ft 346 kts 71°
2026-05-04 18:55 33.09978 131.53302 35029 ft 346 kts 71°
2026-05-04 18:55 33.11092 131.61818 35028 ft 346 kts 71°
2026-05-04 18:56 33.11832 131.67493 35031 ft 346 kts 71°
2026-05-04 18:56 33.12570 131.73168 35029 ft 346 kts 71°
2026-05-04 18:57 33.13305 131.78847 35026 ft 346 kts 71°
2026-05-04 18:57 33.14037 131.84522 35030 ft 346 kts 71°
2026-05-04 18:58 33.14767 131.90202 35030 ft 346 kts 71°
2026-05-04 18:58 33.15495 131.95884 35030 ft 346 kts 71°
2026-05-04 18:59 33.16220 132.01565 35030 ft 346 kts 71°
2026-05-04 18:59 33.16942 132.07249 35030 ft 346 kts 71°
2026-05-04 19:00 33.17660 132.12936 35030 ft 347 kts 72°
2026-05-04 19:00 33.18361 132.18625 35028 ft 347 kts 72°
2026-05-04 19:01 33.19067 132.24316 35028 ft 347 kts 72°
2026-05-04 19:01 33.19772 132.29967 35028 ft 347 kts 72°
2026-05-04 19:02 33.20481 132.35661 35029 ft 347 kts 72°
2026-05-04 19:02 33.21189 132.41354 35029 ft 347 kts 72°
2026-05-04 19:03 33.21894 132.47046 35028 ft 347 kts 72°
2026-05-04 19:03 33.22597 132.52741 35026 ft 347 kts 72°
2026-05-04 19:04 33.23298 132.58440 35031 ft 347 kts 72°
2026-05-04 19:04 33.23986 132.64142 35028 ft 347 kts 72°
2026-05-04 19:05 33.24674 132.69845 35030 ft 347 kts 72°
2026-05-04 19:05 33.25363 132.75543 35026 ft 347 kts 72°
2026-05-04 19:06 33.26055 132.81261 35027 ft 347 kts 72°
2026-05-04 19:06 33.26742 132.86968 35027 ft 347 kts 72°
2026-05-04 19:07 33.27428 132.92677 35029 ft 347 kts 72°
2026-05-04 19:07 33.28110 132.98382 35025 ft 347 kts 72°
2026-05-04 19:08 33.28790 133.04086 35036 ft 348 kts 72°
2026-05-04 19:08 33.29460 133.09812 35026 ft 347 kts 72°
2026-05-04 19:09 33.30127 133.15532 35025 ft 347 kts 72°
2026-05-04 19:09 33.30791 133.21207 35026 ft 347 kts 72°
2026-05-04 19:10 33.31459 133.26921 35029 ft 347 kts 72°
2026-05-04 19:10 33.32126 133.32634 35030 ft 347 kts 72°
2026-05-04 19:11 33.32790 133.38352 35028 ft 347 kts 72°
2026-05-04 19:11 33.33451 133.44069 35029 ft 347 kts 72°
2026-05-04 19:12 33.34438 133.52646 35028 ft 347 kts 72°
2026-05-04 19:13 33.35094 133.58370 35028 ft 347 kts 72°
2026-05-04 19:13 33.35746 133.64091 35029 ft 347 kts 72°
2026-05-04 19:14 33.36396 133.69816 35028 ft 347 kts 72°
2026-05-04 19:14 33.37043 133.75541 35029 ft 347 kts 72°
2026-05-04 19:15 33.37687 133.81265 35028 ft 347 kts 72°
2026-05-04 19:15 33.38330 133.86995 35028 ft 347 kts 72°
2026-05-04 19:16 33.38969 133.92724 35028 ft 347 kts 72°
2026-05-04 19:16 33.39606 133.98456 35028 ft 347 kts 72°
2026-05-04 19:17 33.40238 134.04189 35029 ft 348 kts 73°
2026-05-04 19:17 33.40847 134.09922 35030 ft 347 kts 72°
2026-05-04 19:18 33.41462 134.15661 35028 ft 348 kts 72°
2026-05-04 19:18 33.42085 134.21398 35019 ft 347 kts 72°
2026-05-04 19:19 33.42707 134.27136 35028 ft 348 kts 72°
2026-05-04 19:19 33.43329 134.32878 35029 ft 348 kts 73°
2026-05-04 19:20 33.43947 134.38619 35030 ft 348 kts 73°
2026-05-04 19:20 33.44559 134.44319 35029 ft 348 kts 73°
2026-05-04 19:21 33.45173 134.50064 35030 ft 348 kts 73°
2026-05-04 19:21 33.45776 134.55811 35030 ft 348 kts 73°
2026-05-04 19:22 33.46376 134.61561 35030 ft 348 kts 73°
2026-05-04 19:22 33.46978 134.67310 35029 ft 348 kts 73°
2026-05-04 19:23 33.47580 134.73055 35029 ft 348 kts 73°
2026-05-04 19:23 33.48180 134.78799 35030 ft 348 kts 73°
2026-05-04 19:24 33.48778 134.84550 35028 ft 348 kts 73°
2026-05-04 19:24 33.49373 134.90303 35028 ft 348 kts 73°
2026-05-04 19:25 33.49966 134.96056 35028 ft 348 kts 73°
2026-05-04 19:25 33.50546 135.01818 35029 ft 348 kts 73°
2026-05-04 19:26 33.51126 135.07576 35028 ft 348 kts 73°
2026-05-04 19:26 33.51708 135.13333 35028 ft 348 kts 73°
2026-05-04 19:27 33.52289 135.19093 35028 ft 348 kts 73°
2026-05-04 19:27 33.52868 135.24855 35029 ft 348 kts 73°
2026-05-04 19:28 33.53445 135.30617 35029 ft 348 kts 73°
2026-05-04 19:28 33.54019 135.36381 35029 ft 348 kts 73°
2026-05-04 19:29 33.54587 135.42108 35030 ft 348 kts 73°
2026-05-04 19:29 33.55155 135.47875 35030 ft 348 kts 73°
2026-05-04 19:30 33.55722 135.53646 35032 ft 348 kts 73°
2026-05-04 19:30 33.56285 135.59416 35026 ft 349 kts 73°
2026-05-04 19:31 33.56846 135.65186 35034 ft 349 kts 73°
2026-05-04 19:31 33.57404 135.70960 35030 ft 349 kts 73°
2026-05-04 19:32 33.57961 135.76738 35031 ft 349 kts 73°
2026-05-04 19:32 33.58514 135.82517 35027 ft 349 kts 73°
2026-05-04 19:33 33.59064 135.88290 35034 ft 349 kts 73°
2026-05-04 19:33 33.59612 135.94070 35032 ft 349 kts 73°
2026-05-04 19:34 33.60139 135.99852 35028 ft 349 kts 74°
2026-05-04 19:34 33.60664 136.05638 35029 ft 349 kts 73°
2026-05-04 19:35 33.61197 136.11422 35028 ft 349 kts 73°
2026-05-04 19:35 33.61732 136.17204 35030 ft 349 kts 73°
2026-05-04 19:36 33.62266 136.22984 35030 ft 349 kts 73°
2026-05-04 19:36 33.62797 136.28769 35030 ft 349 kts 73°
2026-05-04 19:37 33.63326 136.34556 35028 ft 349 kts 73°
2026-05-04 19:37 33.63853 136.40344 35029 ft 349 kts 73°
2026-05-04 19:38 33.64377 136.46132 35030 ft 349 kts 74°
2026-05-04 19:38 33.64897 136.51915 35030 ft 349 kts 74°
2026-05-04 19:39 33.65412 136.57668 35028 ft 349 kts 74°
2026-05-04 19:39 33.65928 136.63457 35028 ft 349 kts 74°
2026-05-04 19:40 33.66441 136.69251 35029 ft 349 kts 74°
2026-05-04 19:40 33.66952 136.75045 35028 ft 349 kts 74°
2026-05-04 19:41 33.67459 136.80840 35028 ft 349 kts 74°
2026-05-04 19:41 33.67965 136.86638 35028 ft 349 kts 74°
2026-05-04 19:42 33.68467 136.92436 35029 ft 349 kts 74°
2026-05-04 19:42 33.68953 136.98241 35028 ft 350 kts 74°
2026-05-04 19:43 33.69430 137.04050 35030 ft 349 kts 74°
2026-05-04 19:43 33.69917 137.09856 35030 ft 349 kts 74°
2026-05-04 19:44 33.70298 137.15695 35030 ft 353 kts 77°
2026-05-04 19:44 33.70487 137.21589 35029 ft 354 kts 77°
2026-05-04 19:45 33.70656 137.27491 35030 ft 354 kts 77°
2026-05-04 19:45 33.70799 137.32392 35030 ft 354 kts 77°
2026-05-04 19:46 33.70972 137.38295 35029 ft 354 kts 77°
2026-05-04 19:46 33.71145 137.44194 35030 ft 354 kts 77°
2026-05-04 19:47 33.71315 137.50095 35028 ft 354 kts 77°
2026-05-04 19:47 33.71482 137.55995 35028 ft 354 kts 77°
2026-05-04 19:48 33.71647 137.61900 35030 ft 354 kts 77°
2026-05-04 19:48 33.71809 137.67804 35030 ft 354 kts 77°
2026-05-04 19:49 33.71968 137.73706 35028 ft 354 kts 78°
2026-05-04 19:49 33.72124 137.79615 35028 ft 354 kts 78°
2026-05-04 19:50 33.72277 137.85518 35028 ft 354 kts 78°
2026-05-04 19:50 33.72428 137.91427 35030 ft 354 kts 78°
2026-05-04 19:51 33.72575 137.97333 35029 ft 354 kts 78°
2026-05-04 19:51 33.72719 138.03204 35028 ft 354 kts 78°
2026-05-04 19:52 33.72862 138.09114 35031 ft 354 kts 78°
2026-05-04 19:52 33.72991 138.15027 35030 ft 354 kts 78°
2026-05-04 19:53 33.73105 138.20944 35030 ft 354 kts 78°
2026-05-04 19:53 33.73229 138.26853 35028 ft 354 kts 78°
2026-05-04 19:54 33.73357 138.32767 35028 ft 354 kts 78°
2026-05-04 19:54 33.73484 138.38679 35030 ft 354 kts 78°
2026-05-04 19:55 33.73609 138.44594 35030 ft 354 kts 78°
2026-05-04 19:55 33.74130 138.50370 35026 ft 339 kts 64°
2026-05-04 19:56 33.76152 138.55304 35029 ft 327 kts 52°
2026-05-04 19:56 33.78574 138.59925 35028 ft 327 kts 51°
2026-05-04 19:57 33.80977 138.64565 35029 ft 327 kts 52°
2026-05-04 19:57 33.83335 138.69201 35029 ft 327 kts 52°
2026-05-04 19:58 33.85699 138.73884 35029 ft 327 kts 52°
2026-05-04 19:58 33.88056 138.78571 35031 ft 327 kts 52°
2026-05-04 19:59 33.90410 138.83262 35030 ft 327 kts 52°
2026-05-04 19:59 33.92763 138.87957 35029 ft 327 kts 52°
2026-05-04 20:00 33.95114 138.92655 35030 ft 327 kts 52°
2026-05-04 20:00 33.97461 138.97352 35029 ft 327 kts 52°
2026-05-04 20:01 33.99809 139.02057 35030 ft 327 kts 52°
2026-05-04 20:01 34.02154 139.06761 35029 ft 327 kts 52°
2026-05-04 20:02 34.04498 139.11470 35029 ft 327 kts 52°
2026-05-04 20:02 34.06840 139.16182 35029 ft 328 kts 52°
2026-05-04 20:03 34.09180 139.20896 35029 ft 328 kts 52°
2026-05-04 20:03 34.11519 139.25615 35030 ft 328 kts 52°
2026-05-04 20:04 34.13831 139.30311 35029 ft 328 kts 53°
2026-05-04 20:04 34.16156 139.35045 35028 ft 328 kts 53°
2026-05-04 20:05 34.18486 139.39772 35028 ft 328 kts 53°
2026-05-04 20:05 34.20816 139.44501 35028 ft 328 kts 53°
2026-05-04 20:06 34.23148 139.49233 35030 ft 328 kts 53°
2026-05-04 20:06 34.25476 139.53965 35030 ft 328 kts 53°
2026-05-04 20:07 34.27805 139.58704 35029 ft 328 kts 53°
2026-05-04 20:07 34.30130 139.63443 35028 ft 328 kts 53°
2026-05-04 20:08 34.32455 139.68185 35029 ft 328 kts 53°
2026-05-04 20:08 34.34776 139.72927 35028 ft 328 kts 53°
2026-05-04 20:09 34.37096 139.77674 35028 ft 328 kts 53°
2026-05-04 20:09 34.39415 139.82425 35029 ft 328 kts 53°
2026-05-04 20:10 34.41732 139.87177 35028 ft 328 kts 53°
2026-05-04 20:10 34.44047 139.91933 35028 ft 328 kts 53°
2026-05-04 20:11 34.46362 139.96695 35030 ft 328 kts 53°
2026-05-04 20:11 34.48674 140.01457 35029 ft 328 kts 53°
2026-05-04 20:12 34.50984 140.06221 35029 ft 328 kts 53°
2026-05-04 20:12 34.53293 140.10989 35029 ft 328 kts 53°
2026-05-04 20:13 34.55592 140.15766 35030 ft 328 kts 53°
2026-05-04 20:13 34.57867 140.20521 35028 ft 328 kts 53°
2026-05-04 20:14 34.60164 140.25307 35028 ft 328 kts 53°
2026-05-04 20:14 34.62463 140.30086 35029 ft 328 kts 53°
2026-05-04 20:15 34.64762 140.34870 35029 ft 328 kts 53°
2026-05-04 20:15 34.67060 140.39656 35029 ft 328 kts 53°
2026-05-04 20:16 34.69356 140.44447 35028 ft 328 kts 53°
2026-05-04 20:16 34.71074 140.49667 35029 ft 339 kts 66°
2026-05-04 20:17 34.72216 140.55263 35028 ft 342 kts 68°
2026-05-04 20:17 34.73319 140.60877 35029 ft 341 kts 67°
2026-05-04 20:18 34.74440 140.66487 35029 ft 341 kts 67°
2026-05-04 20:18 34.75569 140.72090 35028 ft 341 kts 67°
2026-05-04 20:19 34.76699 140.77695 35029 ft 341 kts 67°
2026-05-04 20:19 34.77828 140.83304 35031 ft 341 kts 67°
2026-05-04 20:20 34.78954 140.88910 35029 ft 341 kts 67°
2026-05-04 20:20 34.80079 140.94522 35030 ft 341 kts 67°
2026-05-04 20:21 34.81193 141.00094 35029 ft 341 kts 67°
2026-05-04 20:21 34.82870 141.08514 35028 ft 341 kts 67°
2026-05-04 20:22 34.83986 141.14134 35028 ft 341 kts 67°
2026-05-04 20:22 34.85099 141.19753 35028 ft 341 kts 67°
2026-05-04 20:23 34.86207 141.25366 35028 ft 341 kts 67°
2026-05-04 20:23 34.87315 141.30989 35029 ft 342 kts 67°
2026-05-04 20:24 34.88421 141.36617 35029 ft 342 kts 67°
2026-05-04 20:24 34.89523 141.42242 35028 ft 342 kts 67°
2026-05-04 20:25 34.90613 141.47879 35028 ft 342 kts 68°
2026-05-04 20:25 34.91683 141.53481 35028 ft 342 kts 68°
2026-05-04 20:26 34.92770 141.59118 35028 ft 342 kts 68°
2026-05-04 20:26 34.93860 141.64756 35029 ft 342 kts 68°
2026-05-04 20:27 34.94949 141.70392 35028 ft 342 kts 68°
2026-05-04 20:27 34.96037 141.76031 35030 ft 342 kts 68°
2026-05-04 20:28 34.97122 141.81671 35028 ft 342 kts 68°
2026-05-04 20:28 34.98205 141.87317 35028 ft 342 kts 68°
2026-05-04 20:29 34.99285 141.92961 35028 ft 342 kts 68°
2026-05-04 20:29 35.00363 141.98608 35028 ft 342 kts 68°
2026-05-04 20:30 35.01431 142.04221 35028 ft 342 kts 68°
2026-05-04 20:30 35.02511 142.09910 35028 ft 342 kts 68°
2026-05-04 20:31 35.03574 142.15525 35028 ft 342 kts 68°
2026-05-04 20:31 35.04641 142.21178 35028 ft 342 kts 68°
2026-05-04 20:32 35.05707 142.26838 35028 ft 342 kts 68°
2026-05-04 20:32 35.06769 142.32495 35028 ft 342 kts 68°
2026-05-04 20:33 35.07829 142.38158 35028 ft 342 kts 68°
2026-05-04 20:33 35.08885 142.43821 35028 ft 342 kts 68°
2026-05-04 20:34 35.09919 142.49498 35028 ft 342 kts 68°
2026-05-04 20:34 35.10957 142.55173 35028 ft 342 kts 68°
2026-05-04 20:35 35.12001 142.60843 35029 ft 342 kts 68°
2026-05-04 20:35 35.13046 142.66513 35028 ft 342 kts 68°
2026-05-04 20:36 35.14091 142.72189 35030 ft 342 kts 68°
2026-05-04 20:36 35.14958 142.76907 35029 ft 342 kts 68°
2026-05-04 20:37 35.15997 142.82583 35028 ft 342 kts 68°
2026-05-04 20:37 35.17035 142.88262 35028 ft 342 kts 68°
2026-05-04 20:38 35.18068 142.93935 35029 ft 342 kts 68°
2026-05-04 20:38 35.19101 142.99620 35029 ft 342 kts 68°
2026-05-04 20:39 35.20131 143.05304 35028 ft 342 kts 68°
2026-05-04 20:39 35.21158 143.10992 35030 ft 343 kts 68°
2026-05-04 20:40 35.22176 143.16643 35028 ft 343 kts 68°
2026-05-04 20:40 35.23198 143.22333 35028 ft 343 kts 68°
2026-05-04 20:41 35.24217 143.28026 35028 ft 343 kts 68°
2026-05-04 20:41 35.25197 143.33736 35026 ft 346 kts 72°
2026-05-04 20:42 35.25550 143.39692 35029 ft 354 kts 77°
2026-05-04 20:42 35.25686 143.45712 35029 ft 354 kts 78°
2026-05-04 20:43 35.25829 143.51772 35029 ft 354 kts 78°
2026-05-04 20:43 35.25983 143.57746 35028 ft 354 kts 78°
2026-05-04 20:44 35.26142 143.63759 35028 ft 354 kts 78°
2026-05-04 20:44 35.26302 143.69818 35028 ft 354 kts 78°
2026-05-04 20:45 35.26456 143.75790 35028 ft 354 kts 78°
2026-05-04 20:45 35.26609 143.81807 35030 ft 354 kts 78°
2026-05-04 20:46 35.26759 143.87824 35030 ft 354 kts 78°
2026-05-04 20:46 35.26906 143.93843 35029 ft 354 kts 78°
2026-05-04 20:47 35.27050 143.99866 35029 ft 354 kts 78°
2026-05-04 20:47 35.27191 144.05884 35029 ft 354 kts 78°
2026-05-04 20:48 35.27328 144.11909 35030 ft 354 kts 78°
2026-05-04 20:48 35.27463 144.17927 35029 ft 354 kts 78°
2026-05-04 20:49 35.27595 144.23951 35029 ft 354 kts 78°
2026-05-04 20:49 35.27724 144.29975 35028 ft 354 kts 78°
2026-05-04 20:50 35.27848 144.36003 35028 ft 354 kts 78°
2026-05-04 20:50 35.27946 144.42033 35028 ft 355 kts 78°
2026-05-04 20:51 35.28051 144.48065 35028 ft 354 kts 78°
2026-05-04 20:51 35.28163 144.54094 35028 ft 354 kts 78°
2026-05-04 20:52 35.28276 144.60122 35029 ft 354 kts 78°
2026-05-04 20:52 35.28386 144.66148 35029 ft 354 kts 78°
2026-05-04 20:53 35.28494 144.72172 35028 ft 354 kts 78°
2026-05-04 20:53 35.28599 144.78201 35031 ft 354 kts 78°
2026-05-04 20:54 35.28701 144.84238 35031 ft 354 kts 78°
2026-05-04 20:54 35.28800 144.90267 35031 ft 355 kts 78°
2026-05-04 20:55 35.28909 144.96295 35030 ft 354 kts 78°
2026-05-04 20:55 35.29098 145.02265 35030 ft 353 kts 77°
2026-05-04 20:56 35.29314 145.08264 35028 ft 353 kts 77°
2026-05-04 20:56 35.29531 145.14267 35028 ft 353 kts 77°
2026-05-04 20:57 35.29745 145.20272 35030 ft 353 kts 77°
2026-05-04 20:57 35.29955 145.26273 35029 ft 353 kts 77°
2026-05-04 20:58 35.30163 145.32278 35030 ft 353 kts 77°
2026-05-04 20:58 35.30367 145.38284 35028 ft 353 kts 77°
2026-05-04 20:59 35.30569 145.44290 35028 ft 353 kts 77°
2026-05-04 20:59 35.30767 145.50298 35028 ft 353 kts 77°
2026-05-04 21:00 35.30963 145.56306 35028 ft 353 kts 77°
2026-05-04 21:00 35.31155 145.62316 35028 ft 353 kts 77°
2026-05-04 21:01 35.31345 145.68326 35028 ft 353 kts 77°
2026-05-04 21:01 35.31531 145.74335 35030 ft 353 kts 77°
2026-05-04 21:02 35.31715 145.80351 35029 ft 353 kts 77°
2026-05-04 21:02 35.31896 145.86363 35031 ft 353 kts 77°
2026-05-04 21:03 35.32073 145.92376 35028 ft 353 kts 77°
2026-05-04 21:03 35.31899 145.98455 35029 ft 365 kts 87°
2026-05-04 21:04 35.30982 146.04587 35029 ft 370 kts 90°
2026-05-04 21:04 35.29968 146.10760 35029 ft 370 kts 90°
2026-05-04 21:05 35.28978 146.16929 35029 ft 369 kts 89°
2026-05-04 21:05 35.28003 146.23102 35029 ft 369 kts 89°
2026-05-04 21:06 35.27030 146.29275 35028 ft 369 kts 89°
2026-05-04 21:06 35.26055 146.35445 35028 ft 369 kts 89°
2026-05-04 21:07 35.25077 146.41617 35028 ft 369 kts 89°
2026-05-04 21:07 35.24097 146.47783 35028 ft 369 kts 89°
2026-05-04 21:08 35.23113 146.53945 35030 ft 369 kts 89°
2026-05-04 21:08 35.22125 146.60116 35029 ft 370 kts 90°
2026-05-04 21:09 35.21135 146.66279 35030 ft 370 kts 90°
2026-05-04 21:09 35.20141 146.72448 35029 ft 370 kts 90°
2026-05-04 21:10 35.19143 146.78613 35030 ft 370 kts 90°
2026-05-04 21:10 35.18143 146.84776 35029 ft 370 kts 90°
2026-05-04 21:11 35.17145 146.90901 35028 ft 370 kts 90°
2026-05-04 21:11 35.16134 146.97064 35028 ft 370 kts 90°
2026-05-04 21:12 35.15098 147.03224 35028 ft 370 kts 90°
2026-05-04 21:12 35.14070 147.09388 35028 ft 370 kts 90°
2026-05-04 21:13 35.13049 147.15549 35028 ft 370 kts 90°
2026-05-04 21:13 35.12028 147.21709 35029 ft 370 kts 90°
2026-05-04 21:14 35.11005 147.27868 35029 ft 370 kts 90°
2026-05-04 21:14 35.09978 147.34028 35030 ft 370 kts 90°
2026-05-04 21:15 35.08948 147.40185 35030 ft 370 kts 90°
2026-05-04 21:15 35.07915 147.46342 35030 ft 370 kts 90°
2026-05-04 21:16 35.06878 147.52498 35029 ft 370 kts 90°
2026-05-04 21:16 35.05838 147.58654 35029 ft 370 kts 90°
2026-05-04 21:17 35.04795 147.64808 35029 ft 370 kts 90°
2026-05-04 21:17 35.03756 147.70921 35028 ft 370 kts 90°